Location: Lecco
(45.8566°N, 9.3977°E)
Time: 11:57:14
(UTC+02:00)

ISS - Pass Details

Date: 22 July 2018
Orbit: 402 x 408 km, 51.6° (Epoch: 21 July)

Event Time Altitude Azimuth Distance (km) Brightness Sun altitude
Rises 00:29:04 0° 278° (W) 2,322 0.3 -22.4°
Reaches altitude 10° 00:31:18 10° 290° (WNW) 1,464 -0.6 -22.5°
Maximum altitude 00:34:14 30° 353° (N) 767 -1.8 -22.7°
Drops below altitude 10° 00:37:12 10° 57° (ENE) 1,469 -0.8 -22.8°
Sets 00:39:27 0° 69° (ENE) 2,331 0.1 -22.9°
